Regional Weather Roundup
Issued by NWS

Home | Current Version | Previous Version | Text Only | Print | Product List | Glossary Off
Versions: 1 2 3 4 5 6 7 8 9 10 11 12 13 14 15 16 17 18 19 20 21 22 23 24 25 26 27 28 29 30 31 32 33 34 35 36 37 38 39 40 41 42 43 44 45 46 47 48 49 50

000
ASUS45 KBOU 020510
RWRCO

WEATHER ROUNDUP FOR COLORADO
NATIONAL WEATHER SERVICE DENVER/BOULDER CO
1100 PM MDT SAT AUG 01 2015

NOTE: "FAIR" INDICATES FEW OR NO CLOUDS BELOW 12000 FEET WITH NO
SIGNIFICANT WEATHER AND/OR OBSTRUCTIONS TO VISIBILITY.

COZ001>005-013-030-031-020600-
...NORTHWEST COLORADO...

CITY           SKY/WX    TMP DP  RH WIND       PRES   REMARKS
CRAIG          MOCLDY    63  44  50 CALM      30.16S
HAYDEN         MOCLDY    64  41  42 SW6       30.19S
MEEKER         MOCLDY    62  45  53 NE6       30.19S
MOUNT WERNER   NOT AVBL
STEAMBOAT SPGS MOCLDY    63  43  48 E3        30.21S
WALDEN         MOCLDY    57  36  44 NE5       30.30S
$$

COZ006>008-011-020600-
...WEST CENTRAL VALLEYS...

CITY           SKY/WX    TMP DP  RH WIND       PRES   REMARKS
GRAND JUNCTION CLOUDY    76  50  40 S13       30.09S
MONTROSE       CLOUDY    65  56  72 S9        30.22F
EAGLE          MOCLDY    70  43  37 E9        30.22R
RIFLE          CLOUDY    73  48  41 CALM      30.13R
DELTA          CLOUDY    74  53  48 CALM      30.17F
NUCLA          LGT RAIN  61  57  88 CALM      30.31S
$$

COZ017>023-064>068-020600-
...SOUTHWEST COLORADO...

CITY           SKY/WX    TMP DP  RH WIND       PRES   REMARKS
DURANGO        PTCLDY    62  57  83 NE5       30.28R
CORTEZ         MOCLDY    66  61  84 NE3       30.21R
PAGOSA SPRINGS PTCLDY    58  57  96 NE3       30.36S
TELLURIDE      CLOUDY    55  53  91 CALM      30.47S
WOLF CREEK PAS NOT AVBL
$$

COZ009-010-012-014-032>034-037-058>063-020600-
...CENTRAL COLORADO...

CITY           SKY/WX    TMP DP  RH WIND       PRES   REMARKS
ASPEN          CLOUDY    60  47  61 S7        30.31S
BUENA VISTA    MOCLDY    60  46  60 SE5       30.37S
COPPER MTN     CLOUDY    55  34  44 S8        30.64S
BERTHOUD PASS  CLOUDY    46  37  71 SE16      30.68F
COTTONWOOD PAS MOCLDY    59  43  55 CALM      30.50S
GUNNISON       CLOUDY    57  52  82 N3        30.40S
KREMMLING      PTCLDY    59  36  41 CALM      30.26S
LEADVILLE      MOCLDY    52  40  63 CALM      30.48R
MONARCH PASS   CLOUDY    46  39  76 W8        30.74F
SALIDA         NOT AVBL
SUNLIGHT       CLOUDY    57  41  54 CALM      30.57S
WILKERSON PASS MOCLDY    50  41  71 SW9       30.62S
$$

COZ069>075-020600-
...SAN LUIS VALLEY/SANGRE DE CRISTO MOUNTAINS...

CITY           SKY/WX    TMP DP  RH WIND       PRES   REMARKS
ALAMOSA        CLOUDY    58  49  72 CALM      30.34S
LA VETA PASS   CLOUDY    50  41  71 MISG      30.53R
SAGUACHE       NOT AVBL
$$

COZ035-036-038>040-020600-
...NORTHERN COLORADO FRONT RANGE...

CITY           SKY/WX    TMP DP  RH WIND       PRES   REMARKS
DENVER INTL AP PTCLDY    74  48  39 S15       30.09S
DMNS CITY PARK   N/A     75  48  37 SE9G16    30.08R
AURORA         PTCLDY    73  49  42 S20G25    30.11F
FRONT RANGE AP NOT AVBL
ERIE MUNI ARPT PTCLDY    72  50  45 CALM      30.07R
BOULDER MUN AP PTCLDY    72  48  43 CALM      30.07S
CENTENNIAL     MOCLDY    73  48  41 S18G26    30.13F
BROOMFIELD     NOT AVBL
FORT COLLINS   PTCLDY    72  54  53 N10       30.08R
LONGMONT       PTCLDY    73  49  42 N6        30.07S
$$

COZ041-046-047-076>085-087-088-020600-
...PIKES PEAK/PALMER DIVIDE AND SOUTHERN FOOTHILLS...

CITY           SKY/WX    TMP DP  RH WIND       PRES   REMARKS
COLO. SPRINGS  CLOUDY    67  50  54 E3        30.21F
A. F. ACADEMY  MOCLDY    62  51  66 N5        30.22F
ELLICOTT       CLOUDY   N/A N/A N/A CALM      30.20F
FALCON         CLOUDY    62  51  66 W8        30.26F
FORT CARSON    CLOUDY    71  49  45 VRB2      30.17F
LIMON          CLOUDY    64  51  62 N3        30.17R
MONUMENT HILL  NOT AVBL
TRINIDAD       CLOUDY    66  55  67 SW3       30.22R
$$

COZ042>045-048>051-090-091-020600-
...NORTHEAST COLORADO...

CITY           SKY/WX    TMP DP  RH WIND       PRES   REMARKS
GREELEY ARPT   CLEAR     72  52  49 E6        30.07R
AKRON          MOCLDY    68  56  65 SE12      30.12R
BURLINGTON     CLOUDY    73  63  70 S8        30.09S
WRAY           MOCLDY    73  55  54 SE8       30.03F
STERLING       MOCLDY    72  55  56 S10       30.06S
HOLYOKE        NOT AVBL
FORT MORGAN    MOCLDY    71  55  56 E7        30.10S
$$

COZ086-089-092>099-020600-
...SOUTHEAST COLORADO...

CITY           SKY/WX    TMP DP  RH WIND       PRES   REMARKS
PUEBLO         CLOUDY    71  61  70 W10       30.11S
LA JUNTA       CLOUDY    72  58  61 NW8       30.09R
LAMAR          CLOUDY    75  58  55 S7        30.01F
SPRINGFIELD      N/A     71  61  70 SW5       30.10F
$$


USA.gov is the U.S. government's official web portal to all federal, state and local government web resources and services.